#timestamp,LO_Frequency,Hit,StdDev 
1589531235.9,286046943.6,P
1589531255.7,286046940.5,P
1589531275.6,286046941.2,P
1589531295.4,286046941.7,Y
1589531315.2,286046997.1,P
1589531335.1,286046999.4,N
1589531336.0,286046999.4,N
1589531355.8,286046997.2,N
1589531375.6,286046996.8,N
1589531395.5,286046995.6,N
1589531415.3,286046993.8,N
1589531435.2,286046994.0,N
1589531455.9,286046994.6,N
1589531475.7,286046992.1,N
1589531495.6,286046992.1,N
1589531515.4,286046992.0,N
1589531535.3,286046992.3,N
1589531555.1,286046992.9,N
1589531556.0,286046992.9,N
1589531575.8,286046991.8,N
1589531595.7,286046993.0,N
1589531615.5,286046993.0,N
1589531635.3,286046992.7,N
1589531655.2,286046992.5,N
1589531675.0,286046990.4,N
1589531675.9,286046990.4,N
1589531695.8,286046988.6,N
1589531715.6,286046988.7,N
1589531735.4,286046989.6,N
1589531755.3,286046989.8,N
1589531775.1,286046987.7,N
1589531795.8,286046985.8,N
1589531815.7,286046986.1,N
1589531835.5,286046986.7,N
1589531855.4,286046986.7,Y
1589531875.2,286046991.7,P
1589531895.0,286046992.6,P
1589531895.9,286046992.6,P
1589531915.8,286046991.9,Y
1589531935.6,286046998.6,P
1589531955.5,286046998.1,N
1589531975.3,286046998.5,N
1589531995.1,286047000.7,N
1589532015.9,286046998.5,N
1589532035.7,286046998.4,N
1589532085.6,286046995.3,E
1589532095.5,286046997.0,N
1589532115.3,286047000.6,P
1589532135.2,286047000.4,N
1589532155.0,286047000.5,N
1589532155.9,286047000.5,N
1589532175.7,286046998.6,N
1589532195.6,286046998.3,N
1589532215.4,286047001.0,N
1589532235.3,286046998.5,N
1589532255.1,286046999.2,N
1589532275.8,286046996.5,N
1589532295.7,286046999.2,N
1589532315.5,286046996.8,N
1589532335.3,286046997.2,N
1589532355.2,286046997.5,N
1589532375.0,286046997.2,N
1589532375.9,286046997.2,N
1589532395.8,286046997.6,N
1589532415.6,286046997.6,N
1589532435.4,286046995.8,N
1589532455.3,286046996.2,N
1589532475.1,286046998.0,N
1589532495.9,286046995.1,Y
1589532515.7,286046996.7,P
1589532535.5,286046996.8,P
1589532555.4,286046999.2,N
1589532575.2,286046997.9,N
1589532595.1,286046995.8,Y
1589532596.0,286046995.8,P
1589532615.8,286046995.3,P
1589532635.6,286046995.2,P
1589532655.5,286046997.6,N
1589532675.3,286046998.5,N
1589532695.1,286046999.9,N
1589532715.9,286047002.7,N
1589532735.7,286047001.6,N
1589532755.6,286047002.2,N
1589532775.4,286047003.5,N
1589532795.2,286047000.9,N
1589532815.1,286046996.8,N
1589532816.0,286046996.8,N
1589532835.8,286046995.6,N
1589532855.6,286046994.1,N
1589532875.5,286046995.8,N
1589532895.3,286046998.7,N
1589532915.2,286047000.1,N
1589532935.9,286047001.7,N
1589532955.7,286047002.5,N
1589532975.6,286046998.7,N
1589532995.4,286046999.2,N
1589533015.2,286046998.0,N
1589533035.1,286046994.2,N
1589533036.0,286046994.2,N
1589533055.8,286046997.6,N
1589533075.7,286046997.2,N
1589533095.5,286046995.9,N
1589533115.3,286046994.0,N
1589533135.2,286046992.1,N
1589533155.0,286046992.5,N
1589533155.9,286046992.5,N
1589533175.8,286046993.4,N
1589533195.6,286046993.8,N
